Location: Dumpton Point
(51.3500°N, 1.4433°E)
Time: 22:32:55
(UTC+00:00)

Vanguard 1 - Pass Details

Date: 28 September 2022
Orbit: 650 x 3831 km, 34.2° (Epoch: 03 December)

Event Time Altitude Azimuth Distance (km) Brightness Sun altitude
Rises 14:21:13 0° 218° (SW) 6,702 15.6 27.1°
Reaches altitude 10° 14:27:53 10° 205° (SSW) 5,041 15.0 26.3°
Maximum altitude 14:36:05 19° 166° (SSE) 3,425 13.4 25.4°
Drops below altitude 10° 14:41:56 10° 125° (SE) 3,418 12.8 24.7°
Sets 14:45:14 0° 107° (ESE) 3,992 12.9 24.3°
